User: anonymous   Login
Location: Bergnershof
(48.9468°N, 10.9431°E)
Time: 05:24:18
(UTC+00:00)
Language:

Terra - Orbit

View from above orbital plane
View from above orbital plane
View from above satellite
View from above satellite

Ground track
Ground track

The orbit data is extracted from the following two-line orbital elements,

1 25994U 99068A   21134.30115793  .00000074  00000-0  26295-4 0  9990
2 25994  98.1766 209.3477 0001461  98.0258 301.8849 14.57130406138370
Epoch (UTC): 14 May 2021 07:13:40
Eccentricity: 0.0001461
inclination: 98.1766°
perigee height: 701 km
apogee height: 703 km
right ascension of ascending node: 209.3477°
argument of perigee: 98.0258°
revolutions per day: 14.57130406
mean anomaly at epoch: 301.8849°
orbit number at epoch: 13837

The dashed part of the orbit path shows where the satellite is in the earth's shadow,  

DLR